STARLINK-32620, 61928

Orbit data source: Space-Track

STARLINK-32620, 61928 is a payload satellite owned by SpaceX/Seattle (US) in LEO that was launched on Mon, 11 Nov 2024 UTC via an FALCON 9 launch vehicle from the Air Force Eastern Test Range (AFETR). Payload-class satellites include a variety of spacecraft equipped with specific instruments for various scientific and technological missions. These include communications satellites like Starlink; space stations such as the ISS; scientific satellites like the Hubble; Earth observation satellites from companies like Planet Labs, Umbra, and HawkEye 360; GPS; miniature CubeSats for education and research; and military/defense satellites.

Loading next visibility...
Identifier
61928, 2024-207S
Orbit
LEO
Country
Flag of USUS
Related business
Manufacturer
SpaceX/Seattle
Mission
Operational Commercial Communications
Bus & Motor
STARLINK V2M, Unknown motor
Mass
730 kg wet, ~700 kg dry
Launch date (UTC)
2024-11-11 (2 years ago)
Launch vehicle
FALCON 9
Launch site
Air Force Eastern Test Range (AFETR)
Object type
Payload
Rocket body
Debris
Shape & HBR
Box + 2 Pan, 17.7 m
Radar Cross Section
33.884 m², Large (>1 m²)

Expand to show TLE details & history
Last TLE update: 1 day ago

TLE from 1 day ago
0 STARLINK-32620
1 61928U 24207S   26206.40399288  .00019902  00000-0  73043-3 0  9991
2 61928  43.0004 224.0063 0002103 281.8602  78.2014 15.27596320 95780
Epoch: 2026-07-25T09:41Z
TLE epoch observation values (Epoch: 2026-07-25T09:41:44.984Z)
Latitude
-0.00002°
Longitude
135.45208°
Altitude
482.481 km
Speed
7.626 km/s
True Right ascension
14h 56m 01s
True Declination
0° 00' 00"
Sunlit
Object was in daylight at epoch
Visualization orbit readout
Latitude
Unknown
Longitude
Unknown
Altitude
Unknown
Speed
Unknown
Apparent Right ascension
Unknown
Apparent Declination
Unknown
Sunlit
N/A
Visualization observer readout
Local Sidereal Time
23:12:00
Azimuth
Unknown
Elevation
Unknown
Doppler factor
Unknown
Orbital elements
Apogee altitude
486.389 km
Perigee altitude
483.502 km
Semi-major axis
6,863.082 km
Eccentricity
0.00021
Inclination
43.0004°
RAAN
224.0063°
Arg. of periapsis
281.8602°
True anomaly
78.22499°
Mean anomaly
78.2014°
Eccentric anomaly
78.2132°
Mean motion
3.81737 °/min
Orbital period
94.31 mins
BSTAR
0.00073043
Loading maneuver chart data...
Computing Atmospheric mass density...
Loading historical data...
Loading historical data...
Loading historical data...
Loading historical data...
Loading historical data...
Loading historical data...
Loading historical data...

Documentation

Showing up to 5 results
|